Location: Laas
(43.4693°N, 0.3073°E)
Time: 15:15:59
(UTC+00:00)

Cosmos 968 Rocket - Pass Details

Date: 25 October 2020
Orbit: 741 x 770 km, 74.0° (Epoch: 23 November)

Event Time Altitude Azimuth Distance (km) Brightness Sun altitude
Rises 19:18:40 0° 335° (NNW) 3,239 7.2 -25.9°
Reaches altitude 10° 19:21:05 10° 332° (NNW) 2,305 6.4 -26.3°
Maximum altitude 19:26:12 58° 254° (WSW) 883 4.0 -27.2°
Enters shadow 19:28:01 37° 195° (SSW) 1,157 4.4 -27.6°
